This is the latest recevied weather packets stored in our database for station/object K5NAN. If no packets are shown the sender has not sent any weather packets the latest 10 day(s).
| Time | Temp. | Humidity | Pressure | Rain* | Wind** | Luminosity | Snow |
|---|---|---|---|---|---|---|---|
| 1777799430 | 11.67° C | 83% | 1018.7 hPa | 0 mm | - | 0 W/m² | - |
| 1777799126 | 11.67° C | 83% | 1018.6 hPa | 0 mm | - | 0 W/m² | - |
| 1777798822 | 11.67° C | 82% | 1018.6 hPa | 0 mm | - | 0 W/m² | - |
| 1777798518 | 11.67° C | 80% | 1018.7 hPa | 0 mm | - | 0 W/m² | - |
| 1777798215 | 11.67° C | 79% | 1018.5 hPa | 0 mm | - | 0 W/m² | - |
| 1777797912 | 12.22° C | 79% | 1018.7 hPa | 0 mm | - | 0 W/m² | - |
| 1777797610 | 12.22° C | 78% | 1018.5 hPa | 0 mm | - | 0 W/m² | - |
| 1777797307 | 12.22° C | 78% | 1018.5 hPa | 0 mm | - | 0 W/m² | - |
| 1777797004 | 12.22° C | 77% | 1018.6 hPa | 0 mm | - | 0 W/m² | - |
| 1777796701 | 12.22° C | 76% | 1018.6 hPa | 0 mm | - | 0 W/m² | - |
| 1777796397 | 12.78° C | 76% | 1018.7 hPa | 0 mm | - | 0 W/m² | - |
| 1777796092 | 12.78° C | 75% | 1018.5 hPa | 0 mm | - | 0 W/m² | - |
| 1777795789 | 12.78° C | 75% | 1018.4 hPa | 0 mm | - | 0 W/m² | - |
| 1777795485 | 12.22° C | 75% | 1018.7 hPa | 0 mm | - | 0 W/m² | - |
| 1777795183 | 12.78° C | 74% | 1018.6 hPa | 0 mm | - | 0 W/m² | - |
| 1777794879 | 12.78° C | 73% | 1018.7 hPa | 0 mm | - | 0 W/m² | - |
| 1777794576 | 12.78° C | 73% | 1018.7 hPa | 0 mm | - | 0 W/m² | - |
| 1777794270 | 13.33° C | 72% | 1018.8 hPa | 0 mm | - | 0 W/m² | - |
| 1777793966 | 13.33° C | 72% | 1018.7 hPa | 0 mm | - | 0 W/m² | - |
| 1777793664 | 13.33° C | 71% | 1018.8 hPa | 0 mm | - | 0 W/m² | - |
| 1777793362 | 13.33° C | 71% | 1018.7 hPa | 0 mm | - | 0 W/m² | - |
| 1777793059 | 13.89° C | 70% | 1018.7 hPa | 0 mm | - | 0 W/m² | - |
| 1777792756 | 13.89° C | 70% | 1018.8 hPa | 0 mm | - | 0 W/m² | - |
| 1777792453 | 13.33° C | 71% | 1018.7 hPa | 0 mm | - | 0 W/m² | - |
| 1777792149 | 13.89° C | 71% | 1019.1 hPa | 0 mm | - | 0 W/m² | - |
* Rain latest hour (hover to see other rain measurements)
** Current wind speed in m/s (hover to see current wind gust speed)